Location: Unspecified
(0.0000°N, 0.0000°E)
Time: 07:39:57
(UTC+00:00)

Vanguard 2 Rocket - Pass Details

Date: 11 October 2023
Orbit: 552 x 3312 km, 32.9° (Epoch: 06 December)

Event Time Altitude Azimuth Distance (km) Brightness Sun altitude
Rises 09:24:43 0° 321° (NW) 5,303 10.5 53.9°
Reaches altitude 10° 09:31:03 10° 345° (NNW) 4,930 10.6 55.4°
Maximum altitude 09:37:36 14° 12° (NNE) 5,137 10.9 57.0°
Drops below altitude 10° 09:45:17 10° 38° (NE) 5,920 11.4 58.9°
Sets 09:54:51 0° 60° (ENE) 7,253 11.8 61.2°
